Flag for Austria Weather past 2 weeks in Hallein, Salzburg, Austria

Now
50 °F

Partly cloudy.


Feels Like: 48 °F
Forecast: 38 / 53 °F
Wind: 6 mph from West

Location: Salzburg-Flughafen

Current Time: Sep 22, 2014 at 9:15:17 PM

Latest Report: Sep 22, 2014 at 8:20 PM


Visibility: N/A

Pressure: 30.07 "Hg

Humidity: 82%

Dew point: 45 °F

Location of HalleinLocation

Historic Weather in Hallein — Graph

°F

Hallein temperature yesterday

Maximum temperature yesterday: 68 °F (at 2:20 PM)
Minimum temperature yesterday: 59 °F (at 6:20 AM)
Average temperature yesterday: 62 °F

Past Weeks' High & Low Weather Summary

 TemperatureHumidityPressure
High79 °F (Sep 8, 2:50 PM)100% (Sep 10, 2:20 AM)30.12 "Hg (Sep 10, 2:20 AM)
Low46 °F (Sep 15, 6:50 AM)37% (Sep 19, 1:50 PM)29.89 "Hg (Sep 17, 3:50 PM)
Average61 °F82%30.01 "Hg
* Reported Sep 7 7:20 PM — Sep 22 7:50 PM, Hallein, Weather by CustomWeather, © 2014

Note: Actual official high and low records may vary slightly from our data, if they occured in-between our weather recording intervals... More about our weather records

Advertising

Hallein weather history for previous 24 hours

 ConditionsComfort  
Time TempWeatherWind HumidityBarometerVisibility
7:50 PM
Sep 22
52 °FSprinkles. Broken clouds.12 mph72%30.04 "HgN/A
7:20 PM52 °FBroken clouds.10 mph72%30.04 "HgN/A
6:50 PM50 °FBroken clouds.9 mph82%30.04 "HgN/A
6:20 PM48 °FThundershowers. Partly sunny.13 mph82%30.01 "HgN/A
5:50 PM55 °FThundershowers. Partly sunny.9 mph67%30.01 "HgN/A
5:20 PM57 °FBroken clouds.8 mph59%30.01 "HgN/A
4:50 PM55 °FBroken clouds.9 mph59%30.01 "HgN/A
4:20 PM54 °FBroken clouds.12 mph67%30.01 "HgN/A
3:50 PM54 °FBroken clouds.7 mph72%30.01 "HgN/A
3:20 PM52 °FSprinkles. Broken clouds.8 mph77%30.01 "HgN/A
2:50 PM57 °FBroken clouds.14 mph63%30.01 "HgN/A
2:20 PM57 °FBroken clouds.12 mph55%30.01 "HgN/A
1:50 PM57 °FBroken clouds.12 mph59%30.01 "HgN/A
1:20 PM55 °FBroken clouds.10 mph63%30.04 "HgN/A
12:50 PM57 °FBroken clouds.12 mph67%30.04 "HgN/A
12:20 PM55 °FBroken clouds.10 mph67%30.04 "HgN/A
11:50 AM54 °FLight rain. Broken clouds.6 mph82%30.04 "HgN/A
11:20 AM54 °FLight rain. Broken clouds.9 mph77%30.07 "HgN/A
10:50 AM54 °FSprinkles. Broken clouds.12 mph77%30.07 "HgN/A
10:20 AM54 °FBroken clouds.9 mph82%30.07 "HgN/A
9:50 AM54 °FBroken clouds.9 mph82%30.07 "HgN/A
9:20 AM54 °FBroken clouds.6 mph88%30.07 "HgN/A
8:50 AM54 °FBroken clouds.8 mph88%30.04 "HgN/A
8:20 AM54 °FBroken clouds.7 mph88%30.04 "HgN/A
7:50 AM54 °FPartly cloudy.5 mph94%30.04 "HgN/A
7:20 AM54 °FPartly cloudy.5 mph94%30.04 "HgN/A
6:50 AM54 °FLight rain. Partly cloudy.5 mph94%30.04 "HgN/A
6:20 AM54 °FLight rain. Partly cloudy.3 mph94%30.04 "HgN/A
5:50 AM54 °FLight rain. Partly cloudy.3 mph94%30.01 "HgN/A
5:20 AM54 °FLight rain. Partly cloudy.2 mph94%30.04 "HgN/A
4:50 AM54 °FLight rain. Partly cloudy.6 mph94%30.04 "HgN/A
4:20 AM55 °FLight rain. Partly cloudy.5 mph88%30.04 "HgN/A
3:50 AM54 °FLight rain. Partly cloudy.5 mph94%30.04 "HgN/A
3:20 AM54 °FLight rain. Passing clouds.12 mph94%30.01 "HgN/A
2:50 AM55 °FRain. Partly cloudy.9 mph94%30.01 "HgN/A
1:50 AM57 °FPartly cloudy.6 mph88%30.01 "HgN/A
1:20 AM57 °FPartly cloudy.6 mph88%29.98 "HgN/A
12:50 AM57 °FLight rain. Passing clouds.9 mph88%29.98 "HgN/A
12:20 AM57 °FRain showers. Passing clouds.9 mph94%29.95 "HgN/A
11:50 PM
Sep 21
59 °FRain showers. Partly cloudy.7 mph88%29.95 "Hg4 mi
11:20 PM59 °FLight rain. Passing clouds.6 mph82%29.95 "HgN/A
10:50 PM59 °FLight rain. Passing clouds.2 mph82%29.95 "HgN/A
10:20 PM61 °FSprinkles. Partly cloudy.3 mph77%29.95 "HgN/A
9:50 PM61 °FSprinkles. Passing clouds.7 mph77%29.95 "HgN/A
9:20 PM61 °FPassing clouds.3 mph77%29.95 "HgN/A
Weather by CustomWeather, © 2014

See weather overviewHow to use our weather pages